Regional Weather Roundup
Issued by NWS Glasgow, MT

Home | Current Version | Previous Version | Text Only | Print | Product List | Glossary On
Versions: 1 2 3 4 5 6 7 8 9 10 11 12 13 14 15 16 17 18 19 20 21 22 23 24 25 26 27 28 29 30 31 32 33 34 35 36 37 38 39 40 41 42 43 44 45 46 47 48 49 50
000
ASUS45 KGGW 280515
RWRGGW
HOURLY WEATHER ROUNDUP FOR NORTHEAST MONTANA
NATIONAL WEATHER SERVICE GLASGOW MONTANA
1100 PM MDT FRI MAR 27 2015

NOTE: "FAIR" INDICATES FEW OR NO CLOUDS BELOW 12,000 FEET WITH NO
SIGNIFICANT WEATHER AND/OR OBSTRUCTIONS TO VISISBILITY.

NORTHEAST MONTANA


CITY           SKY/WX    TMP DP  RH WIND       PRES   REMARKS
GLASGOW        PTCLDY    49  34  56 S6        29.85F
PLENTYWOOD       N/A     42  37  82 SE9         N/A
WOLF POINT     PTCLDY    44  37  76 NE10      29.88S
JORDAN           N/A     40  35  83 W5        29.88F
WINNETT          N/A     39  30  70 S3          N/A
SIDNEY         CLEAR     43  36  75 CALM      29.91S
GLENDIVE         N/A     48  36  61 E6        29.90S
MALTA            N/A     46  35  65 SW3         N/A
SCOBEY           N/A     43  33  68 CALM      29.88S

FORT PECK REPORTS


CITY           SKY/WX    TMP DP  RH WIND       PRES   REMARKS
FORT PECK        N/A     55  36  48 SE6         N/A
THE PINES        N/A     52  32  46 SW3         N/A

SOUTHEAST MONTANA


CITY           SKY/WX    TMP DP  RH WIND       PRES   REMARKS
BILLINGS       PTCLDY    60  30  32 SW8       29.95S
MILES CITY     MOCLDY    52  34  50 SE6       29.90S
BAKER          MOCLDY    45  36  70 E5        29.93S
LIVINGSTON     CLEAR     60  32  34 SW15      30.00F

CENTRAL MONTANA


CITY           SKY/WX    TMP DP  RH WIND       PRES   REMARKS
HAVRE          MOCLDY    51  33  50 S15       29.83F
LEWISTOWN      CLEAR     48  31  51 SE6       29.95F
GREAT FALLS    MOCLDY    50  34  54 S9        29.90F
CUT BANK       MOCLDY    55  38  52 SW13      29.86F
HELENA         PTCLDY    59  32  36 SW8       29.94F
BUTTE          CLEAR     43  31  62 SE6       30.06S
BOZEMAN        CLEAR     48  33  56 SE8       30.01S

WESTERN MONTANA


CITY           SKY/WX    TMP DP  RH WIND       PRES   REMARKS
MISSOULA       CLEAR     52  39  61 CALM      29.94S
KALISPELL      NOT AVBL

NORTH DAKOTA


CITY           SKY/WX    TMP DP  RH WIND       PRES   REMARKS
WILLISTON      CLEAR     43  36  76 CALM      29.91F
DICKINSON      CLEAR     35  29  78 S7        29.91S
MINOT          CLOUDY    33  30  88 NE7       29.95S
BISMARCK       CLOUDY    33  30  88 E9        29.96R

SOUTHERN SASKATCHEWAN


CITY           SKY/WX    TMP DP  RH WIND       PRES   REMARKS
REGINA         PTCLDY    34  32  93 SE12      29.91S
ESTEVAN        CLOUDY    32  32 100 E8        29.94
SWIFT CURRENT  PTCLDY    43  39  87 SE13      29.80F




USA.gov is the U.S. government's official web portal to all federal, state and local government web resources and services.